Glendale Luke AFB, AZ

6:32 AM MST on December 10, 2019 (GMT -0700)
Luke Air Force Base

Weather History for KLUF - July, 2019

Change the Weather History Date:

Friday, July 19, 2019

  Actual Average Record
Temperature  
Mean Temperature 96 °F -  
Max Temperature 105 °F 107 °F 118 °F (1978)
Min Temperature 88 °F 76 °F 63 °F (1987)
Cooling Degree Days 32    
Growing Degree Days 46 (Base 50)    
Moisture  
Dew Point 38 °F    
Average Humidity 14    
Maximum Humidity 24    
Minimum Humidity 8    
Precipitation  
Precipitation 0.00 in - - ()
Sea Level Pressure  
Sea Level Pressure 29.74 in    
Wind  
Wind Speed 12 mph (SW)    
Max Wind Speed 17 mph    
Max Gust Speed -    
Visibility 10 miles    
Events      
Averages and records for this station are not official NWS values.
T = Trace of Precipitation, MM = Missing Value Source: NWS Daily Summary

Daily Weather History Graph

Daily Weather History Graph

Search for Another Location

Airport or City:

Astronomy

Jul. 19, 2019 Rise Set
Actual Time 5:32 AM MST 7:38 PM MST
Civil Twilight 5:04 AM MST 8:06 PM MST
Nautical Twilight 4:30 AM MST 8:40 PM MST
Astronomical Twilight 3:53 AM MST 9:17 PM MST
Moon 9:44 PM MST (7/19) 7:58 AM MST (7/19)
Length of Visible Light 15h 01m
Length of Day
14h 05m
Waning Gibbous, 92% of the Moon is Illuminated
Jul 19
Waning Gibbous
Jul 24
Last Quarter
Jul 31
New
Aug 7
First Quarter
Aug 15
Full

Hourly Weather History & Observations

Time (MST) Temp. Dew Point Humidity Pressure Visibility Wind Dir Wind Speed Gust Speed Precip Events Conditions
12:58 AM 93.2 °F 49.8 °F 23% 29.71 in 10.0 mi SW 10.4 mph - N/A   Overcast
1:58 AM 93.0 °F 48.6 °F 22% 29.71 in 10.0 mi SW 12.7 mph - N/A   Mostly Cloudy
2:58 AM 92.5 °F 49.3 °F 23% 29.71 in 10.0 mi SW 13.8 mph - N/A   Scattered Clouds
3:58 AM 91.2 °F 49.3 °F 24% 29.72 in 10.0 mi SSW 12.7 mph - N/A   Mostly Cloudy
4:58 AM 90.1 °F 47.3 °F 23% 29.73 in 10.0 mi SW 9.2 mph - N/A   Overcast
5:58 AM 88.7 °F 46.0 °F 23% 29.74 in 10.0 mi SW 8.1 mph - N/A   Scattered Clouds
6:58 AM 92.7 °F 44.2 °F 19% 29.75 in 10.0 mi WSW 9.2 mph - N/A   Partly Cloudy
7:58 AM 92.8 °F 43.0 °F 18% 29.77 in 10.0 mi SW 11.5 mph - N/A   Partly Cloudy
8:58 AM 95.4 °F 42.1 °F 16% 29.78 in 10.0 mi SW 13.8 mph - N/A   Partly Cloudy
9:22 AM 95.0 °F 41.0 °F 15% 29.78 in 10.0 mi SW 13.8 mph - N/A   Light Drizzle
9:27 AM 95.0 °F 41.0 °F 15% 29.78 in 10.0 mi SW 13.8 mph - N/A   Partly Cloudy
9:58 AM 96.6 °F 37.6 °F 13% 29.78 in 10.0 mi SSW 13.8 mph - 0.00 in   Partly Cloudy
10:16 AM 98.6 °F 37.4 °F 12% 29.79 in 10.0 mi SW 17.3 mph - N/A   Light Drizzle
10:17 AM 98.6 °F 37.4 °F 12% 29.79 in 10.0 mi SW 16.1 mph - N/A   Partly Cloudy
10:21 AM 98.6 °F 37.4 °F 12% 29.79 in 10.0 mi SW 16.1 mph - N/A   Light Drizzle
10:31 AM 98.6 °F 37.4 °F 12% 29.79 in 10.0 mi SW 13.8 mph - N/A   Scattered Clouds
10:58 AM 99.0 °F 35.2 °F 11% 29.79 in 10.0 mi SW 11.5 mph - 0.00 in   Mostly Cloudy
11:58 AM 100.9 °F 34.3 °F 10% 29.78 in 10.0 mi SW 11.5 mph - N/A   Mostly Cloudy
12:58 PM 103.1 °F 36.0 °F 10% 29.76 in 10.0 mi SW 6.9 mph - N/A   Scattered Clouds
1:58 PM 102.6 °F 32.9 °F 9% 29.74 in 10.0 mi West 12.7 mph - N/A   Mostly Cloudy
2:58 PM 102.4 °F 32.7 °F 9% 29.72 in 10.0 mi WSW 10.4 mph - N/A   Clear
3:58 PM 105.3 °F 32.0 °F 8% 29.69 in 10.0 mi WSW 16.1 mph - N/A   Clear
4:58 PM 103.5 °F 30.7 °F 8% 29.68 in 10.0 mi SW 13.8 mph - N/A   Clear
5:58 PM 104.0 °F 31.1 °F 8% 29.67 in 10.0 mi WSW 10.4 mph - N/A   Clear
6:58 PM 104.0 °F 34.0 °F 9% 29.65 in 10.0 mi WSW 16.1 mph - N/A   Partly Cloudy
7:58 PM 100.8 °F 36.7 °F 11% 29.66 in 10.0 mi SW 12.7 mph - N/A   Overcast
8:58 PM 98.1 °F 36.7 °F 12% 29.68 in 10.0 mi WSW 12.7 mph - N/A   Scattered Clouds
9:58 PM 94.1 °F 37.6 °F 14% 29.70 in 10.0 mi West 8.1 mph - N/A   Clear
10:58 PM 93.2 °F 25.9 °F 9% 29.71 in 10.0 mi West 5.8 mph - N/A   Clear
11:58 PM 93.4 °F 26.1 °F 9% 29.71 in 10.0 mi West 9.2 mph - N/A   Partly Cloudy